设为首页收藏本站

Dj慢摇吧

 找回密码
 免费注册

QQ登录

只需一步,快速开始

扫一扫,访问微社区

收起/展开 收藏本版 |订阅

互动气氛爆点歌(Vip专用) 今日: 0|主题: 565|排名: 4 

请大家珍惜本版块资源!不要随意分享与传播!抓到直接封帐号!切行切珍惜!
作者 回复/查看 最后发表
全局置顶 隐藏置顶帖 预览 2018 抖音最火中英文(原版&舞曲版) 178首 版主推荐 digest  ...23456..8 djmy8 2018-7-13 7222482 303132127 2019-11-10 19:56
全局置顶 隐藏置顶帖 预览 抖音热播歌曲90首 attach_img digest  ...23456..9 djmy8 2018-5-4 8021779 9999 2019-12-5 05:46
      
预览 凤舞十天 - 朝伟版 digest djmy8 2020-5-20 491 djlxw 2020-5-20 15:18
预览 气氛-互动-hardstyle 采蘑菇的小姑娘 digest djmy8 2020-5-20 577 djlxw 2020-5-20 15:19
预览 520 必备大气氛合唱 不得不爱 digest djmy8 2020-5-20 680 djcyx 2020-5-20 21:59
预览 520 必备 I Love You Baby (Doong2 Bootleg) digest djmy8 2020-5-20 480 dj阿祖 2020-5-20 19:18
预览 当 520气氛138 OneK mashup digest djmy8 2020-5-20 584 djcyx 2020-5-20 22:23
预览 TJR, DJLuκi 857惊雷 digest djmy8 2020-5-10 8241 djligh000 2020-5-17 15:20
预览 W&W, DJcary Bowser拍手气氛互动 digest djmy8 2020-5-10 9228 djsky 2020-5-20 11:11
预览 Tremor拍手大气氛 (RICKY Edit) digest djmy8 2020-5-10 5231 djsky 2020-5-20 11:09
预览 TJR - 塞班857(KAMA remix) digest djmy8 2020-5-10 5199 dj阿祖 2020-5-15 05:19
预览 monster拍手气氛爆点 zomboy digest djmy8 2020-5-10 5212 djligh000 2020-5-17 20:18
预览 PsyTrance - 最后的莫西干人 - 朝伟版 digest djmy8 2020-5-10 4218 djligh000 2020-5-17 20:26
预览 Space Jam - 857 Feel My Bass(L3Mashup) digest djmy8 2020-5-10 4193 djligh000 2020-5-17 20:23
预览 Rock The Discothek - 朝伟版 digest djmy8 2020-5-10 3202 djligh000 2020-5-17 20:30
预览 Lona.X, 阿D 酱爆857(Remix) digest djmy8 2020-5-10 3201 djligh000 2020-5-17 20:34
预览 mushroomofficial, Mushroom_Offiicial I SAY YEAH 化蝶飞(Edit Mix) digest djmy8 2020-5-10 5207 djligh000 2020-5-17 20:35
预览 dj-Robin_Z, 气氛爆点-快乐拍手吃鸡98K that girl digest djmy8 2020-5-10 5198 djligh000 2020-5-17 20:36
预览 Martin Garrix, Dimitri Vegas & Like Mike, Tremor拍手大气 digest djmy8 2020-5-10 5195 djligh000 2020-5-17 20:37
预览 Jungle Fury x 鳌拜摇(MushrooM EDIT MIX) digest djmy8 2020-5-10 6189 djligh000 2020-5-17 20:38
预览 Kevin Black, M3, ID CAT 玩腻-HARD BOUNCE digest djmy8 2020-5-10 6203 dj451567345 2020-5-20 05:15
预览 Kevin Black, King_et 王紫, Tones and I DANCE MONKEYKevin Black digest djmy8 2020-5-10 4181 djligh000 2020-5-19 13:47
预览 HandClap & God ls A Girl · Mashup digest djmy8 2020-5-10 4154 djligh000 2020-5-19 13:49
预览 Grams - 卡卡跑丁车 digest djmy8 2020-5-10 3177 djligh000 2020-5-19 13:55
预览 Helix_惊雷 digest djmy8 2020-5-10 4173 djligh000 2020-5-19 13:56
预览 Fall Down 颗粒互动 (MCAIIen DJ BOBO digest djmy8 2020-5-10 4168 djligh000 2020-5-19 14:01
预览 Dark黄 - Dark黄 - 玩腻 - 2020特制版 digest djmy8 2020-5-10 3109 djligh000 2020-5-19 14:02
预览 Dark黄 - Norazo - Happy SongX骑马歌 digest djmy8 2020-5-10 3126 djligh000 2020-5-19 14:04
预览 E - girls - 大家来跳舞(Edlns remix) digest djmy8 2020-5-10 386 djcyx 2020-5-11 16:02
预览 Dark黄 - Backstreet Boys - Everybody后街男孩 digest djmy8 2020-5-10 378 新手注册2 2020-5-16 19:32
预览 EDM&私の名前は精神小伙(DJ-AVEN REMIX) digest djmy8 2020-5-10 578 dj451567345 2020-5-19 17:25
预览 DJ灬Cool, 梦然 80-少年(抖音) digest djmy8 2020-5-10 488 djligh000 2020-5-19 05:56
预览 Dark黄 - Smile. DK - Butterfly digest djmy8 2020-5-10 481 djligh000 2020-5-19 05:55
预览 Dark黄 - 猪八戒背媳妇 digest djmy8 2020-5-10 278 djmy8 2020-5-10 16:18
预览 DJ E.VN艺玮, Cuee, Sweep J EGM(EDM)抖音热歌 digest djmy8 2020-5-10 584 djligh000 2020-5-19 05:54
预览 a for boy 潮伟 道具互动Tony Igy - Astronomia digest djmy8 2020-5-10 579 djligh000 2020-5-19 05:49
预览 Astronomia 2020 - 黑人骑士团 (DJ B.O.B EDIT) digest djmy8 2020-5-10 482 djligh000 2020-5-19 05:48
预览 D-Block & S-te-Fan, Sub Zero Project, CINYA Darkest Hour - Intro digest djmy8 2020-5-10 472 djligh000 2020-5-19 05:47
预览 2020 那女孩对我说 (DJ B.O.B EDIT) digest djmy8 2020-5-10 775 djligh000 2020-5-19 05:45
预览 bigroom dubstep Hardstyle 气氛颗粒串左右 digest djmy8 2020-5-10 478 djligh000 2020-5-19 05:41
预览 Coone, DJ E.VN艺玮 大气开场BPM150 私改 digest djmy8 2020-5-10 481 djligh000 2020-5-19 05:39
预览 Ava Max(拍手加强) - sweet-but digest djmy8 2020-5-10 590 djligh000 2020-5-18 05:52
预览 75拍手版 Power Hour(Remix) digest djmy8 2020-5-10 578 djligh000 2020-5-18 05:47
预览 Complicated (Original Mix) digest djmy8 2020-5-10 577 djligh000 2020-5-18 05:44
预览 Candy.Love - Canon and Gigue in D [卡农]朝伟版 digest djmy8 2020-5-10 475 djligh000 2020-5-18 05:42
预览 2020气氛爆点-1 czizc digest djmy8 2020-5-10 669 djligh000 2020-5-18 05:41
预览 2020 亚索 - 面对疾风吧(DJ .B.O.B EDIT) digest djmy8 2020-5-10 465 djligh000 2020-5-18 05:40
预览 12点气氛爆点➕手抛纸Major, McMajor general digest djmy8 2020-5-10 770 djligh000 2020-5-18 05:36
预览 150BPM-抖音神曲苏卡不列cyka blyat digest djmy8 2020-5-10 363 djligh000 2020-5-18 05:35
预览 12点半气氛歌[气柱 手抛纸 人声互动 操栏杆 ] digest djmy8 2020-5-10 865 djligh000 2020-5-18 05:32
预览 12.30气氛 digest djmy8 2020-5-10 759 djligh000 2020-5-18 05:28
预览 5A - 128 - 2020.5.1劳动节开场(DJKony Mash Up) digest djmy8 2020-4-27 462 djlxw 2020-4-29 13:00
预览 150 浩死爹南死拉夫La Danza Delle Streghe digest djmy8 2020-4-16 9210 dj451567345 2020-5-9 23:50
预览 150 气氛版江南死爹Gentleman2020 digest djmy8 2020-4-16 9179 新手注册2 2020-4-28 19:27
预览 150BPM-抖音神曲苏卡不列 digest  ...2 djmy8 2020-4-16 10184 9999 2020-5-13 07:44
预览 150气氛浩死爹酱爆857(Remix) digest djmy8 2020-4-16 8160 新手注册2 2020-4-28 19:30
预览 2020新版龙的传人 digest djmy8 2020-4-16 7175 新手注册2 2020-4-28 19:32
预览 2020新版左右搞来搞去 digest djmy8 2020-4-16 7185 dj阿祖 2020-4-24 00:54
预览 Bowser拍手气氛互动 digest djmy8 2020-4-16 7174 dj阿祖 2020-4-24 00:55
预览 Hurricane(拍手版) digest djmy8 2020-4-16 6150 dj阿祖 2020-4-24 00:55
预览 I SAY YEAH 化蝶飞 digest djmy8 2020-4-16 7177 Kin_B9Vtc 2020-5-10 05:36
预览 奥利给 digest djmy8 2020-4-16 6146 dj阿祖 2020-4-24 00:56
预览 爆点BAODIAN (DjRevive Extended Mix) digest djmy8 2020-4-16 7152 9999 2020-5-13 07:46
预览 大气The Kick x Rave culture Mashup digest djmy8 2020-4-16 5151 djcyx 2020-4-22 15:36
预览 大气开场BPM150 私改 digest djmy8 2020-4-16 7149 9999 2020-5-13 07:47
预览 倒数 2020不一样的大大大大大大(BPM150 Bounce ) digest djmy8 2020-4-16 5158 djcyx 2020-4-20 15:41
预览 抖音DA DA DA x Are you ready Mashup digest djmy8 2020-4-16 5138 新手注册2 2020-4-28 19:34
预览 抖音E.G.M+857气氛版150BPM digest djmy8 2020-4-16 8144 新手注册2 2020-4-28 19:35
预览 抖音惊雷 digest djmy8 2020-4-16 6127 新手注册2 2020-4-28 19:37
预览 抖音可爱摇(L3 mashup) digest djmy8 2020-4-16 5121 djcyx 2020-4-22 15:38
预览 反差互动拍手 digest djmy8 2020-4-16 5129 djcyx 2020-4-22 16:53
预览 欢快气氛Tune It Up 2020 digest djmy8 2020-4-16 6112 djcyx 2020-4-22 16:54
预览 挥手130-150 - Narcotic - Left Right digest djmy8 2020-4-16 6100 9999 2020-5-13 07:47
预览 啦 啦 啦 啦 TAKE MY HAND(Edit Mix) digest djmy8 2020-4-16 684 djcyx 2020-4-22 16:55
预览 老歌新作Beautiful Bluenation digest djmy8 2020-4-16 486 djcyx 2020-4-22 16:55
预览 老歌新作气氛Basshunter - I Can Walk On Water digest djmy8 2020-4-16 473 djlxw 2020-4-16 20:31
预览 拍手Love is gone (DJ Gabi Mashup) digest djmy8 2020-4-16 582 9999 2020-5-13 07:49
预览 气氛Beast Untzbox (DJ Gabi Mashup) digest djmy8 2020-4-16 471 djlxw 2020-4-16 20:32
预览 气氛Darkest Hour - Intro MasterDJ digest djmy8 2020-4-16 471 djlxw 2020-4-16 20:32
预览 气氛爆点拍手+上下+挥手 digest djmy8 2020-4-16 683 djligh000 2020-4-21 00:43
预览 王者审判(王者荣耀Remix) digest djmy8 2020-4-16 677 9999 2020-5-13 08:16
预览 向左左左左向向右右右右Back to Front (GGW Remix) digest djmy8 2020-4-16 670 9999 2020-5-13 08:17
预览 中文 150版空心(Remix) digest djmy8 2020-4-16 575 新手注册2 2020-4-28 19:24
预览 左中右 拍手 颗粒 digest djmy8 2020-4-16 569 djcyx 2020-4-20 15:37
预览 [内部]国粤语_贺新年专用中文RAP (红包拿来) digest djmy8 2020-1-23 3609 djcaidefu 2020-1-23 20:58
预览 2A - 125 - 2020新年开场当年的甜蜜呢Happy New YearDJKONY digest djmy8 2020-1-23 4589 djcaidefu 2020-1-23 21:00
预览 2020 Bass 中国年China X - 李佳浩 digest djmy8 2020-1-23 5630 新手注册2 2020-2-14 01:42
预览 2020中国年爆点China X - 李佳浩 digest djmy8 2020-1-23 61186 新手注册2 2020-2-14 01:33
预览 2020年中国新年女DJ开场 - 李佳浩 digest djmy8 2020-1-23 4531 djcaidefu 2020-1-23 21:00
预览 气氛互动-互動 Let It Bang vs. The Kick digest djmy8 2020-1-5 5648 新手注册2 2020-2-11 13:53
预览 气氛互动-最新版150皮卡丘 digest djmy8 2020-1-5 6687 dj0818 2020-3-19 17:27
预览 气氛互动-中国风湖北民歌互动 digest djmy8 2020-1-5 7683 dj0818 2020-3-19 17:25
预览 气氛互动-新版上下 气氛 颗粒 - Dimitri Vegas & Like Mike digest djmy8 2020-1-5 6669 djcyx 2020-1-23 19:44
预览 气氛互动-小提琴 rock互动 &Bella ciao hardwell 145 bpm digest djmy8 2020-1-5 7617 dj0818 2020-3-19 17:18
预览 气氛互动-新版测试 digest djmy8 2020-1-5 8640 dj451567345 2020-4-10 20:37
预览 气氛互动-西班牙颗粒 digest djmy8 2020-1-5 5601 新手注册2 2020-2-11 13:33
预览 气氛互动-我要你的愛 x The Drop digest djmy8 2020-1-5 8586 新手注册2 2020-2-11 13:22
预览 气氛互动-跳舞机 - No limit digest djmy8 2020-1-5 6600 djlonely 2020-4-5 11:28
预览 气氛互动-左右 互动 - Cast Away digest djmy8 2020-1-5 3632 djcaidefu 2020-1-5 21:26
预览 MC 啊杰-第六版2.10 (拍手+互动上下拍手) digest  ...2 djmy8 2019-11-13 101820 wx_mI7mF8fa 2020-1-5 04:07
预览 MC 啊杰-第六版1.10 (马气氛) digest djmy8 2019-11-13 91673 wzf439059571 2019-12-12 01:34
预览 MC JACK&杰-第4版2.10 ( 旗子 挥手+赶鸭子+拍手) digest djmy8 2019-11-13 91105 dj0818 2020-3-20 22:13
预览 MC JACK&杰-第3版1.10 (拍手+死墙) digest djmy8 2019-11-13 81110 wx_mI7mF8fa 2020-1-5 04:17
预览 MC JACK&杰-第2版2.10 ( rock you+拍手) digest djmy8 2019-11-13 61051 djlonely 2019-12-30 19:21
预览 MC JACK&杰-第1版1.10 (手机灯+声音互动) digest djmy8 2019-11-13 81089 wzf439059571 2019-12-12 01:36
预览 骑上我心爱的小摩托(整蛊 洗脑) digest  ...2 djmy8 2019-11-9 141764 azsxdc 2020-1-6 01:11
预览 最强拍手 - Fucking Clap Your Hands Up - 朝伟版 digest  ...2 djmy8 2019-11-9 131749 wx_mI7mF8fa 2020-1-5 04:19
预览 MC朝伟小互动 - Let Me Love You EDM 朝伟版 digest djmy8 2019-11-9 91099 wx_mI7mF8fa 2020-1-5 04:20
预览 MC爆点大互动 - Somebody Say Ho 朝伟终极版 digest  ...2 djmy8 2019-11-9 111622 wx_mI7mF8fa 2020-1-5 04:09
预览 MC 啊杰-第五版2.10 (拍手+双手上下) digest djmy8 2019-10-28 91130 wzf439059571 2019-12-12 02:50
预览 MC 啊杰-第四版2.10 (Zombie) digest djmy8 2019-10-28 71114 wzf439059571 2019-12-12 02:51
预览 最强互动Raphael - Boys Are Trouble朝伟版 digest djmy8 2019-10-28 91061 9999 2020-1-15 07:52
预览 万圣节必备 W&W王炸开场-你敢音响放大了再听嘛 digest djmy8 2019-10-28 4951 dj阿祖 2019-10-29 19:29
预览 万圣节必备超级电子灯光秀开场 - isk EDM BigRoom digest djmy8 2019-10-28 5962 alex 2019-11-1 18:48
预览 万圣节大秀 This Is Only One Halloween In The World digest djmy8 2019-10-28 4966 dj阿祖 2019-10-29 19:28
预览 万圣节Deadmau5 x The Captains x Diggz x The Undertaker - Halloween S digest djmy8 2019-10-28 3953 dj阿祖 2019-10-29 19:28
预览 万圣节KSHMR x Vinai x Bassjackers - The Zombies Returns The Memories digest djmy8 2019-10-28 4947 dj阿祖 2019-10-29 19:26
预览 万圣节恐怖场景布场音效-(30分钟) digest djmy8 2019-10-28 6948 dj阿祖 2019-10-29 19:23
预览 MC 啊杰-第四版1.10 (国潮扇子+声音互动) digest  ...2 djmy8 2019-10-21 112119 9999 2019-12-18 05:42
预览 MC 啊杰-第三版2.10 (旗子 挥手+赶鸭子+拍手) digest djmy8 2019-10-21 6979 wzf439059571 2019-12-12 02:53
下一页 »

快速发帖

还可输入 80 个字符
您需要登录后才可以发帖 登录 | 免费注册

本版积分规则

QQ|小黑屋|手机版|Archiver|Dj慢摇吧 ( 浙ICP备13012325号  

GMT+8, 2020-5-28 22:23 , Processed in 0.059408 second(s), 14 queries .

Powered by Discuz! X3.2

© 2001-2013 Comsenz Inc.

返回顶部 返回版块